TimeMST,TemperatureF,Dew PointF,Humidity,Sea Level PressureIn,VisibilityMPH,Wind Direction,Wind SpeedMPH,Gust SpeedMPH,PrecipitationIn,Events,Conditions,WindDirDegrees,DateUTC
12:53 AM,-20.9,-26.0,77,30.56,10.0,NNW,5.8,-,N/A,,Clear,330,2013-12-06 07:53:00
1:53 AM,-20.9,-25.1,81,30.56,10.0,South,3.5,-,N/A,,Clear,180,2013-12-06 08:53:00
2:53 AM,-22.0,-27.0,77,30.59,10.0,South,3.5,-,N/A,,Clear,170,2013-12-06 09:53:00
3:53 AM,-24.0,-29.0,77,30.63,10.0,Calm,Calm,-,N/A,,Clear,0,2013-12-06 10:53:00
4:44 AM,-22.0,-27.9,74,30.24,10.0,Calm,Calm,-,N/A,,Mostly Cloudy,0,2013-12-06 11:44:00
4:53 AM,-22.0,-27.0,77,30.65,8.0,South,4.6,-,N/A,,Overcast,180,2013-12-06 11:53:00
5:53 AM,-17.0,-22.0,78,30.66,7.0,South,4.6,-,N/A,,Overcast,190,2013-12-06 12:53:00
6:53 AM,-14.1,-20.0,75,30.67,3.0,Calm,Calm,-,N/A,,Haze,0,2013-12-06 13:53:00
7:04 AM,-13.0,-18.9,75,30.29,2.5,Calm,Calm,-,0.00,Snow,Light Snow,0,2013-12-06 14:04:00
7:13 AM,-13.0,-18.0,78,30.29,3.0,Calm,Calm,-,0.00,,Haze,0,2013-12-06 14:13:00
7:53 AM,-11.9,-18.0,74,30.68,4.0,Calm,Calm,-,0.00,,Haze,0,2013-12-06 14:53:00
8:09 AM,-11.9,-17.0,78,30.30,3.0,Calm,Calm,-,N/A,,Haze,0,2013-12-06 15:09:00
8:16 AM,-13.0,-17.0,82,30.30,2.5,Calm,Calm,-,N/A,,Overcast,0,2013-12-06 15:16:00
8:27 AM,-13.0,-18.0,78,30.30,1.8,South,3.5,-,N/A,,Haze,180,2013-12-06 15:27:00
8:34 AM,-13.0,-18.0,78,30.30,3.0,Calm,Calm,-,N/A,,Haze,0,2013-12-06 15:34:00
8:53 AM,-13.0,-18.0,78,30.70,9.0,Calm,Calm,-,N/A,,Overcast,0,2013-12-06 15:53:00
9:53 AM,-9.9,-11.9,91,30.71,10.0,Calm,Calm,-,N/A,,Overcast,0,2013-12-06 16:53:00
10:16 AM,-8.0,-9.9,91,30.33,10.0,Calm,Calm,-,N/A,,Mostly Cloudy,0,2013-12-06 17:16:00
10:53 AM,-9.9,-15.0,78,30.71,10.0,North,4.6,-,N/A,,Partly Cloudy,350,2013-12-06 17:53:00
11:53 AM,-9.0,-15.0,75,30.70,10.0,NNW,5.8,-,N/A,,Mostly Cloudy,340,2013-12-06 18:53:00
12:53 PM,-9.0,-15.0,75,30.69,10.0,NW,5.8,-,N/A,,Clear,310,2013-12-06 19:53:00
1:53 PM,-9.0,-15.0,75,30.68,10.0,NW,4.6,-,N/A,,Clear,320,2013-12-06 20:53:00
2:53 PM,-9.9,-16.1,74,30.69,10.0,West,4.6,-,N/A,,Clear,270,2013-12-06 21:53:00
3:53 PM,-14.1,-20.0,75,30.71,10.0,WNW,4.6,-,N/A,,Clear,290,2013-12-06 22:53:00
4:53 PM,-20.0,-25.1,78,30.73,10.0,Calm,Calm,-,N/A,,Clear,0,2013-12-06 23:53:00
5:53 PM,-20.9,-26.0,77,30.73,10.0,Calm,Calm,-,N/A,,Clear,0,2013-12-07 00:53:00
6:53 PM,-22.0,-27.0,77,30.72,10.0,Calm,Calm,-,N/A,,Clear,0,2013-12-07 01:53:00
7:53 PM,-23.1,-27.0,82,30.72,10.0,North,3.5,-,N/A,,Mostly Cloudy,360,2013-12-07 02:53:00
8:53 PM,-23.1,-27.0,82,30.73,10.0,NNE,4.6,-,N/A,,Overcast,20,2013-12-07 03:53:00
9:53 PM,-20.0,-25.1,78,30.72,5.0,Calm,Calm,-,N/A,,Haze,0,2013-12-07 04:53:00
10:53 PM,-18.9,-25.1,74,30.71,5.0,Calm,Calm,-,N/A,,Haze,0,2013-12-07 05:53:00
11:27 PM,-18.9,-24.0,78,30.32,9.0,Calm,Calm,-,N/A,,Scattered Clouds,0,2013-12-07 06:27:00
11:53 PM,-20.9,-26.0,77,30.71,9.0,Calm,Calm,-,N/A,,Partly Cloudy,0,2013-12-07 06:53:00